SCP
0 0 0 0 0 0 0 0 0 0 0 0 0 0 0 0 0 0 0 1 1 1 1 1 1 1 1 1 1 1 1 1 1 1 1 0 0 0 0 0 0 0 0
0 0 0 0 0 0 0 0 0 0 0 0 0 0 0 0 0 0 0 0 1 1 1 1 1 2 2 2 1 1 1 1 1 1 1 1 0 0 0 0 0 0 0
-0 0 0 0 0 0 0 0 0 0 0 0 0 0 0 0 0 0 0 0 0 1 1 1 1 2 2 2 2 1 1 1 1 1 1 1 1 0 1 1 1 1 1
0 0 0 0 0 0 0 0 0 0 0 0 0 0 0 0 0 0 0 0 0 0 1 2 0 1 2 2 2 1 1 1 1 1 1 1 1 1 1 1 1 2 0
0 1 0 0 1 0 1 2 2 1 1 1 1 0 0 0 0 0 0 1 1 1 2 1 0 1 1 1 2 1 1 1 1 1 1 1 1 1 1 1 1 1 0
0 1 1 2 1 1 1 2 2 2 1 2 2 1 1 1 1 1 1 1 0 0 0 0 1 1 1 1 1 1 1 1 1 1 0 1 1 1 1 1 1 0 0
2 2 2 2 2 2 1 1 1 1 2 2 1 1 1 0 0 1 0 0 0 0 0 0 0 0 0 0 1 1 1 0 1 0 1 0 1 1 1 1 0 0 0
3 3 2 2 3 2 2 2 2 2 1 1 1 1 1 0 1 1 0 0 0 0 0 0 0 0 1 0 1 1 1 1 1 1 0 0 0 0 1 1 1 1 0
6 5 4 4 4 3 2 2 2 2 2 1 1 1 1 0 0 0 0 0 0 0 0 0 0 0 0 1 1 0 0 0 0 0 0 0 0 1 1 1 0 0 0
5 5 5 5 4 2 2 1 0 0 1 1 1 1 1 0 0 0 0 0 0 0 0 0 0 1 1 0 0 0 0 0 0 0 0 1 1 0 0 0 1 1 1
5 4 4 3 3 2 1 1 1 1 1 1 1 1 1 1 1 0 0 0 0 0 1 1 1 1 0 0 0 0 0 0 0 0 0 0 0 0 0 0 0 1 1
4 4 3 2 2 2 1 1 1 1 1 1 1 1 1 1 1 0 0 0 0 0 0 1 0 1 1 0 0 0 0 0 0 0 0 0 0 0 1 1 1 1 0
3 2 2 2 2 2 1 1 1 1 1 1 1 1 1 1 1 1 1 0 0 0 0 0 0 0 0 0 0 0 0 0 0 0 0 0 0 0 0 0 1 0 0
2 2 2 1 1 1 1 1 1 0 0 0 0 0 1 1 1 1 0 1 0 0 0 0 0 0 0 0 0 0 0 0 0 0 -0 0 0 0 0 0 0 0 0
2 1 1 0 0 0 0 0 0 0 0 0 0 0 0 1 0 0 0 0 0 0 0 0 0 0 0 0 0 0 0 0 0 -0 -0 0 0 0 0 0 0 0 0
1 0 0 0 0 0 0 0 0 0 0 0 0 0 0 0 0 0 0 0 0 0 0 0 0 0 0 0 0 0 0 0 -0 -0 -0 0 0 0 0 0 0 0 0
0 0 0 0 0 0 0 0 0 0 0 0 0 0 0 0 0 0 0 0 0 0 0 0 0 0 0 0 0 0 0 0 0 0 0 0 0 0 0 0 0 0 0
0 0 0 0 0 0 0 0 0 0 0 0 0 0 0 0 0 0 0 0 0 0 0 0 0 0 0 0 0 0 0 1 0 0 0 0 0 0 0 0 0 0 0
0 0 0 0 0 0 0 0 0 0 0 0 0 0 0 0 0 0 0 0 0 0 0 0 0 0 0 0 0 0 0 0 0 0 0 0 0 0 0 0 0 0 0
0 0 0 0 0 0 0 0 0 0 0 0 0 0 0 0 0 0 0 0 0 0 0 0 0 0 0 0 0 0 0 0 0 0 0 0 0 0 0 0 0 0 0
0 0 0 0 0 0 0 0 0 0 0 0 0 0 0 0 0 0 0 0 0 0 0 0 0 0 0 0 0 0 0 0 -0 0 0 0 0 0 0 0 0 0 0
0 0 0 0 0 0 0 0 0 0 0 0 0 0 0 0 0 0 0 0 0 0 0 0 0 0 0 0 0 0 0 0 0 0 0 0 0 0 0 0 0 0 0
0 0 0 0 0 0 0 0 0 0 0 0 0 0 0 0 0 0 0 0 0 0 0 0 0 0 0 0 0 0 0 0 0 0 0 0 0 0 0 0 0 0 0
0 0 0 0 0 0 0 0 0 0 0 0 0 0 0 0 0 0 0 0 0 0 0 0 0 0 0 0 0 0 0 0 0 0 0 0 0 0 0 0 0 0 0
0 0 0 0 0 0 0 0 0 0 0 0 0 0 0 0 0 0 0 0 0 0 0 0 0 0 0 0 0 0 0 0 0 0 0 0 0 0 0 0 0 0 0
0 0 0 0 0 0 0 0 0 0 0 0 0 0 0 0 0 0 0 0 0 0 0 0 0 0 0 0 0 0 0 0 0 0 0 0 0 0 0 0 0 0 0
Wind_Speed_500mb
38 33 23 25 21 16 12 11 9 12 12 15 21 22 19 27 34 39 45 45 47 46 39 38 43 47 43 40 44 45 47 47 48 48 45 48 49 49 44 44 47 44 42
38 33 28 25 27 24 19 20 24 25 21 21 27 26 27 33 35 37 37 41 45 48 49 51 55 48 48 41 34 42 48 50 52 53 51 50 51 52 50 50 49 49 47
42 39 39 36 36 37 30 29 18 12 17 18 22 26 36 38 36 39 39 38 43 41 40 40 42 46 45 43 41 41 41 45 50 51 52 54 52 53 52 54 51 51 50
39 44 44 41 30 30 39 42 37 41 43 44 44 43 39 38 36 38 44 46 44 39 40 42 45 44 35 39 47 46 48 47 43 41 51 58 59 54 51 52 53 55 54
25 39 43 40 33 27 30 37 39 42 43 43 44 44 41 44 48 49 46 46 50 44 42 59 43 45 46 49 54 59 60 58 66 74 64 59 57 55 57 57 60 58 56
35 31 39 41 44 40 35 42 45 44 46 48 49 52 59 57 46 45 46 47 50 54 52 47 55 42 49 56 56 57 56 53 55 60 69 74 74 76 77 72 62 52 40
39 36 33 34 41 40 44 52 54 59 64 65 61 59 49 53 56 51 54 57 63 57 53 43 36 38 38 38 47 53 57 56 49 59 58 55 60 59 54 50 43 35 31
45 39 35 32 34 45 51 46 44 37 45 49 45 44 49 51 46 40 40 40 38 40 46 40 38 28 42 44 43 52 61 59 60 53 50 50 45 42 40 41 38 42 40
48 46 42 40 39 43 47 46 48 46 50 54 48 41 17 15 27 44 41 50 43 39 31 37 43 45 43 38 45 56 64 58 57 50 50 41 32 35 42 42 38 36 31
50 46 43 39 40 47 48 48 49 41 36 46 40 42 46 48 40 33 49 51 43 33 33 35 35 38 37 48 54 60 64 65 58 55 43 31 30 21 21 16 28 30 29
54 52 49 46 46 47 39 42 39 35 37 36 36 41 40 41 37 42 51 50 45 40 39 38 37 35 44 54 56 40 42 44 41 35 36 32 31 32 18 7 10 12 16
44 42 41 43 36 32 27 26 30 31 29 31 31 32 34 38 43 40 44 47 44 54 50 44 43 41 49 52 50 38 33 31 31 36 34 36 35 36 14 13 9 16 20
37 33 34 33 30 23 22 23 26 24 24 27 28 31 30 32 34 37 42 52 51 53 55 55 45 41 37 39 39 37 34 31 31 35 39 40 36 35 17 19 17 13 15
33 35 35 29 24 20 20 17 17 20 25 28 29 33 37 41 43 42 41 37 42 45 44 41 40 31 21 31 32 33 30 29 30 25 25 26 19 22 29 28 22 20 23
40 35 31 27 23 24 20 22 27 20 11 15 20 22 22 25 27 28 26 28 31 33 37 36 41 37 33 36 46 37 34 26 19 26 24 20 20 17 22 26 29 27 33
34 33 27 21 23 21 15 10 4 1 4 5 11 14 13 17 18 18 19 18 17 24 23 30 34 40 35 34 37 46 38 26 36 32 35 33 31 35 40 42 37 36 37
30 25 20 16 12 8 7 7 10 10 16 19 17 17 21 26 26 27 26 26 24 26 30 33 34 38 40 42 34 35 36 28 32 37 41 48 64 54 57 61 58 59 47
38 32 27 20 12 7 9 13 16 19 22 24 26 27 27 30 33 32 33 33 36 36 42 49 47 47 45 36 34 29 26 31 39 42 45 53 59 62 59 64 70 77 69
37 30 24 18 13 12 15 20 25 25 25 27 29 31 29 27 31 31 33 38 42 45 45 45 48 44 45 47 47 42 35 25 30 36 41 45 49 53 52 59 75 73 77
30 21 16 11 12 17 17 22 28 33 37 38 34 22 19 22 25 27 35 41 44 43 44 43 41 40 37 39 44 53 56 51 46 33 29 27 35 42 41 47 43 46 65
21 13 9 13 16 19 24 28 35 41 40 31 12 7 13 16 22 29 31 41 45 44 36 39 41 45 48 48 48 53 57 61 64 62 64 62 57 48 39 33 27 30 43
10 7 11 14 19 25 29 32 30 22 17 15 11 10 18 23 31 39 42 34 34 30 30 32 37 41 44 44 47 50 55 62 65 44 55 50 46 55 72 75 67 53 40
5 7 9 14 16 19 21 19 16 14 18 16 10 7 17 27 27 30 38 37 31 18 20 28 35 38 46 47 50 52 51 54 61 67 66 73 55 51 43 46 63 84 83
3 3 5 8 11 12 14 17 16 15 20 17 17 14 17 22 29 37 40 29 24 17 16 22 30 33 33 34 35 37 44 50 55 56 55 66 63 63 47 46 44 43 45
7 5 4 6 9 11 12 11 12 17 13 7 15 17 18 23 32 36 30 31 25 17 20 21 24 28 27 31 30 40 47 56 69 72 65 44 48 48 56 66 45 32 27
11 8 11 11 12 13 11 13 15 15 12 3 8 10 17 26 30 27 30 33 33 36 34 26 26 33 33 39 38 45 54 61 66 71 45 41 57 60 52 58 31 32 32
Wind_Direction_500mb
207 193 212 225 225 241 262 312 281 290 297 276 287 296 285 287 279 271 270 274 281 289 294 295 294 294 297 301 280 277 273 272 277 280 279 272 267 269 272 272 272 269 265
208 204 210 231 232 245 253 270 290 291 283 272 276 284 294 287 285 285 289 293 283 278 281 285 288 286 290 293 290 281 277 276 277 279 280 278 270 270 273 271 270 270 267
206 202 213 223 229 243 257 269 265 262 270 255 260 262 274 281 280 279 285 289 289 277 274 291 291 289 277 274 279 281 281 280 279 280 280 278 272 269 270 271 269 267 261
211 211 211 226 230 230 231 239 250 254 261 263 266 271 271 275 274 277 287 291 288 267 251 269 278 274 277 276 275 277 283 282 284 285 286 279 272 270 277 272 268 267 261
228 225 221 225 228 234 237 243 247 249 250 255 259 261 261 271 274 272 269 270 274 277 257 296 278 291 288 290 292 291 286 282 285 284 277 273 270 262 275 270 273 267 266
234 240 241 232 221 227 239 242 243 243 249 250 255 260 270 268 267 272 277 272 274 281 291 289 286 282 289 295 297 291 290 286 284 278 274 271 265 263 270 271 268 266 264
240 241 240 247 233 227 244 248 255 260 263 263 267 268 272 268 272 276 279 279 283 288 291 288 298 299 288 294 294 292 296 298 292 298 282 283 272 268 265 263 259 249 252
244 248 249 244 244 242 246 258 266 268 276 270 270 277 284 288 289 293 293 288 291 294 292 302 292 287 286 283 285 288 291 300 302 295 291 286 266 255 260 267 262 262 261
238 241 246 258 263 253 249 249 250 249 262 272 273 271 270 261 297 298 296 297 299 306 291 288 287 280 288 294 293 294 294 296 298 288 291 279 275 263 254 253 256 252 255
229 236 240 258 259 261 253 253 276 272 273 274 275 271 278 279 287 286 297 303 305 297 298 293 293 285 285 287 303 301 293 293 294 289 269 244 237 239 245 248 243 245 242
224 232 238 248 254 260 254 258 263 274 270 271 277 275 274 280 285 293 294 301 298 287 293 289 296 289 286 303 312 309 300 293 296 283 249 229 235 236 228 219 226 229 214
225 231 243 251 246 253 253 253 256 259 270 273 277 281 284 292 299 305 300 298 306 299 301 296 292 290 287 297 299 311 311 302 281 269 260 246 259 254 195 213 246 252 238
224 228 235 237 232 229 233 249 255 264 277 282 286 288 291 296 300 300 295 295 301 299 295 294 303 296 301 299 303 309 312 302 282 274 272 267 265 238 244 257 262 235 218
195 210 213 216 227 237 259 257 264 270 266 276 287 292 295 293 293 294 302 308 308 307 308 307 305 301 305 304 295 300 294 301 299 302 273 253 246 236 243 246 236 234 233
191 204 208 211 223 247 243 256 273 283 298 295 299 301 296 294 298 300 307 310 312 311 311 314 314 312 306 298 288 297 277 266 260 259 243 223 246 253 249 244 242 248 240
191 198 198 210 230 245 248 243 212 352 283 296 297 298 308 315 316 318 328 326 322 330 317 316 314 320 323 314 304 304 304 270 290 244 220 229 243 246 241 254 242 244 246
173 166 160 160 158 137 138 185 218 225 270 278 273 281 286 291 290 288 296 301 300 307 310 305 303 306 314 325 325 325 320 297 269 267 260 265 248 267 246 253 252 254 255
148 147 151 159 168 202 244 258 277 287 285 289 298 295 295 300 302 303 298 296 295 296 304 306 302 300 304 306 307 303 295 293 297 293 283 272 264 269 261 255 251 255 264
158 158 168 180 195 235 266 281 284 285 293 301 304 306 306 304 307 303 303 302 303 304 304 306 306 302 294 291 290 287 290 285 265 271 269 266 268 268 270 266 260 255 259
154 163 184 204 254 261 274 278 283 291 295 300 306 303 303 304 296 303 302 305 307 310 314 312 311 309 305 299 299 302 291 284 283 267 273 281 269 265 263 262 262 258 256
158 169 232 257 272 291 296 299 303 307 311 312 297 288 321 322 326 322 317 311 317 322 325 327 328 329 328 329 330 320 314 306 296 293 289 281 270 261 258 247 253 253 256
159 216 255 279 294 307 316 325 329 344 359 14 31 10 325 307 308 309 315 324 331 329 331 325 323 323 323 325 324 325 324 324 325 330 327 314 311 293 272 268 264 260 253
153 243 287 304 323 331 345 356 15 9 13 12 350 331 312 324 334 342 340 334 328 312 302 308 313 320 322 325 322 321 322 320 317 321 317 313 319 312 313 293 269 264 264
190 258 329 353 11 17 46 44 52 34 51 46 30 12 337 332 334 333 339 350 2 2 339 320 321 326 328 341 340 330 323 320 318 319 321 305 310 307 312 315 310 282 271
149 109 70 40 62 69 61 49 30 10 27 39 31 12 347 335 341 338 349 349 1 10 7 0 346 339 320 329 335 335 342 338 328 326 327 309 318 309 304 304 311 299 285
133 123 116 89 88 78 58 26 13 16 28 103 50 0 340 336 333 353 358 2 1 3 353 343 328 322 327 331 334 331 330 327 327 322 317 304 301 301 299 308 299 293 296
Wind_Speed_850mb
38 33 23 25 21 16 12 11 9 12 12 15 21 22 19 27 34 39 45 45 47 46 39 38 43 47 43 40 44 45 47 47 48 48 45 48 49 49 44 44 47 44 42
38 33 28 25 27 24 19 20 24 25 21 21 27 26 27 33 35 37 37 41 45 48 49 51 55 48 48 41 34 42 48 50 52 53 51 50 51 52 50 50 49 49 47
42 39 39 36 36 37 30 29 18 12 17 18 22 26 36 38 36 39 39 38 43 41 40 40 42 46 45 43 41 41 41 45 50 51 52 54 52 53 52 54 51 51 50
39 44 44 41 30 30 39 42 37 41 43 44 44 43 39 38 36 38 44 46 44 39 40 42 45 44 35 39 47 46 48 47 43 41 51 58 59 54 51 52 53 55 54
25 39 43 40 33 27 30 37 39 42 43 43 44 44 41 44 48 49 46 46 50 44 42 59 43 45 46 49 54 59 60 58 66 74 64 59 57 55 57 57 60 58 56
35 31 39 41 44 40 35 42 45 44 46 48 49 52 59 57 46 45 46 47 50 54 52 47 55 42 49 56 56 57 56 53 55 60 69 74 74 76 77 72 62 52 40
39 36 33 34 41 40 44 52 54 59 64 65 61 59 49 53 56 51 54 57 63 57 53 43 36 38 38 38 47 53 57 56 49 59 58 55 60 59 54 50 43 35 31
45 39 35 32 34 45 51 46 44 37 45 49 45 44 49 51 46 40 40 40 38 40 46 40 38 28 42 44 43 52 61 59 60 53 50 50 45 42 40 41 38 42 40
48 46 42 40 39 43 47 46 48 46 50 54 48 41 17 15 27 44 41 50 43 39 31 37 43 45 43 38 45 56 64 58 57 50 50 41 32 35 42 42 38 36 31
50 46 43 39 40 47 48 48 49 41 36 46 40 42 46 48 40 33 49 51 43 33 33 35 35 38 37 48 54 60 64 65 58 55 43 31 30 21 21 16 28 30 29
54 52 49 46 46 47 39 42 39 35 37 36 36 41 40 41 37 42 51 50 45 40 39 38 37 35 44 54 56 40 42 44 41 35 36 32 31 32 18 7 10 12 16
44 42 41 43 36 32 27 26 30 31 29 31 31 32 34 38 43 40 44 47 44 54 50 44 43 41 49 52 50 38 33 31 31 36 34 36 35 36 14 13 9 16 20
37 33 34 33 30 23 22 23 26 24 24 27 28 31 30 32 34 37 42 52 51 53 55 55 45 41 37 39 39 37 34 31 31 35 39 40 36 35 17 19 17 13 15
33 35 35 29 24 20 20 17 17 20 25 28 29 33 37 41 43 42 41 37 42 45 44 41 40 31 21 31 32 33 30 29 30 25 25 26 19 22 29 28 22 20 23
40 35 31 27 23 24 20 22 27 20 11 15 20 22 22 25 27 28 26 28 31 33 37 36 41 37 33 36 46 37 34 26 19 26 24 20 20 17 22 26 29 27 33
34 33 27 21 23 21 15 10 4 1 4 5 11 14 13 17 18 18 19 18 17 24 23 30 34 40 35 34 37 46 38 26 36 32 35 33 31 35 40 42 37 36 37
30 25 20 16 12 8 7 7 10 10 16 19 17 17 21 26 26 27 26 26 24 26 30 33 34 38 40 42 34 35 36 28 32 37 41 48 64 54 57 61 58 59 47
38 32 27 20 12 7 9 13 16 19 22 24 26 27 27 30 33 32 33 33 36 36 42 49 47 47 45 36 34 29 26 31 39 42 45 53 59 62 59 64 70 77 69
37 30 24 18 13 12 15 20 25 25 25 27 29 31 29 27 31 31 33 38 42 45 45 45 48 44 45 47 47 42 35 25 30 36 41 45 49 53 52 59 75 73 77
30 21 16 11 12 17 17 22 28 33 37 38 34 22 19 22 25 27 35 41 44 43 44 43 41 40 37 39 44 53 56 51 46 33 29 27 35 42 41 47 43 46 65
21 13 9 13 16 19 24 28 35 41 40 31 12 7 13 16 22 29 31 41 45 44 36 39 41 45 48 48 48 53 57 61 64 62 64 62 57 48 39 33 27 30 43
10 7 11 14 19 25 29 32 30 22 17 15 11 10 18 23 31 39 42 34 34 30 30 32 37 41 44 44 47 50 55 62 65 44 55 50 46 55 72 75 67 53 40
5 7 9 14 16 19 21 19 16 14 18 16 10 7 17 27 27 30 38 37 31 18 20 28 35 38 46 47 50 52 51 54 61 67 66 73 55 51 43 46 63 84 83
3 3 5 8 11 12 14 17 16 15 20 17 17 14 17 22 29 37 40 29 24 17 16 22 30 33 33 34 35 37 44 50 55 56 55 66 63 63 47 46 44 43 45
7 5 4 6 9 11 12 11 12 17 13 7 15 17 18 23 32 36 30 31 25 17 20 21 24 28 27 31 30 40 47 56 69 72 65 44 48 48 56 66 45 32 27
11 8 11 11 12 13 11 13 15 15 12 3 8 10 17 26 30 27 30 33 33 36 34 26 26 33 33 39 38 45 54 61 66 71 45 41 57 60 52 58 31 32 32
Wind_Direction_850mb
207 193 212 225 225 241 262 312 281 290 297 276 287 296 285 287 279 271 270 274 281 289 294 295 294 294 297 301 280 277 273 272 277 280 279 272 267 269 272 272 272 269 265
208 204 210 231 232 245 253 270 290 291 283 272 276 284 294 287 285 285 289 293 283 278 281 285 288 286 290 293 290 281 277 276 277 279 280 278 270 270 273 271 270 270 267
206 202 213 223 229 243 257 269 265 262 270 255 260 262 274 281 280 279 285 289 289 277 274 291 291 289 277 274 279 281 281 280 279 280 280 278 272 269 270 271 269 267 261
211 211 211 226 230 230 231 239 250 254 261 263 266 271 271 275 274 277 287 291 288 267 251 269 278 274 277 276 275 277 283 282 284 285 286 279 272 270 277 272 268 267 261
228 225 221 225 228 234 237 243 247 249 250 255 259 261 261 271 274 272 269 270 274 277 257 296 278 291 288 290 292 291 286 282 285 284 277 273 270 262 275 270 273 267 266
234 240 241 232 221 227 239 242 243 243 249 250 255 260 270 268 267 272 277 272 274 281 291 289 286 282 289 295 297 291 290 286 284 278 274 271 265 263 270 271 268 266 264
240 241 240 247 233 227 244 248 255 260 263 263 267 268 272 268 272 276 279 279 283 288 291 288 298 299 288 294 294 292 296 298 292 298 282 283 272 268 265 263 259 249 252
244 248 249 244 244 242 246 258 266 268 276 270 270 277 284 288 289 293 293 288 291 294 292 302 292 287 286 283 285 288 291 300 302 295 291 286 266 255 260 267 262 262 261
238 241 246 258 263 253 249 249 250 249 262 272 273 271 270 261 297 298 296 297 299 306 291 288 287 280 288 294 293 294 294 296 298 288 291 279 275 263 254 253 256 252 255
229 236 240 258 259 261 253 253 276 272 273 274 275 271 278 279 287 286 297 303 305 297 298 293 293 285 285 287 303 301 293 293 294 289 269 244 237 239 245 248 243 245 242
224 232 238 248 254 260 254 258 263 274 270 271 277 275 274 280 285 293 294 301 298 287 293 289 296 289 286 303 312 309 300 293 296 283 249 229 235 236 228 219 226 229 214
225 231 243 251 246 253 253 253 256 259 270 273 277 281 284 292 299 305 300 298 306 299 301 296 292 290 287 297 299 311 311 302 281 269 260 246 259 254 195 213 246 252 238
224 228 235 237 232 229 233 249 255 264 277 282 286 288 291 296 300 300 295 295 301 299 295 294 303 296 301 299 303 309 312 302 282 274 272 267 265 238 244 257 262 235 218
195 210 213 216 227 237 259 257 264 270 266 276 287 292 295 293 293 294 302 308 308 307 308 307 305 301 305 304 295 300 294 301 299 302 273 253 246 236 243 246 236 234 233
191 204 208 211 223 247 243 256 273 283 298 295 299 301 296 294 298 300 307 310 312 311 311 314 314 312 306 298 288 297 277 266 260 259 243 223 246 253 249 244 242 248 240
191 198 198 210 230 245 248 243 212 352 283 296 297 298 308 315 316 318 328 326 322 330 317 316 314 320 323 314 304 304 304 270 290 244 220 229 243 246 241 254 242 244 246
173 166 160 160 158 137 138 185 218 225 270 278 273 281 286 291 290 288 296 301 300 307 310 305 303 306 314 325 325 325 320 297 269 267 260 265 248 267 246 253 252 254 255
148 147 151 159 168 202 244 258 277 287 285 289 298 295 295 300 302 303 298 296 295 296 304 306 302 300 304 306 307 303 295 293 297 293 283 272 264 269 261 255 251 255 264
158 158 168 180 195 235 266 281 284 285 293 301 304 306 306 304 307 303 303 302 303 304 304 306 306 302 294 291 290 287 290 285 265 271 269 266 268 268 270 266 260 255 259
154 163 184 204 254 261 274 278 283 291 295 300 306 303 303 304 296 303 302 305 307 310 314 312 311 309 305 299 299 302 291 284 283 267 273 281 269 265 263 262 262 258 256
158 169 232 257 272 291 296 299 303 307 311 312 297 288 321 322 326 322 317 311 317 322 325 327 328 329 328 329 330 320 314 306 296 293 289 281 270 261 258 247 253 253 256
159 216 255 279 294 307 316 325 329 344 359 14 31 10 325 307 308 309 315 324 331 329 331 325 323 323 323 325 324 325 324 324 325 330 327 314 311 293 272 268 264 260 253
153 243 287 304 323 331 345 356 15 9 13 12 350 331 312 324 334 342 340 334 328 312 302 308 313 320 322 325 322 321 322 320 317 321 317 313 319 312 313 293 269 264 264
190 258 329 353 11 17 46 44 52 34 51 46 30 12 337 332 334 333 339 350 2 2 339 320 321 326 328 341 340 330 323 320 318 319 321 305 310 307 312 315 310 282 271
149 109 70 40 62 69 61 49 30 10 27 39 31 12 347 335 341 338 349 349 1 10 7 0 346 339 320 329 335 335 342 338 328 326 327 309 318 309 304 304 311 299 285
133 123 116 89 88 78 58 26 13 16 28 103 50 0 340 336 333 353 358 2 1 3 353 343 328 322 327 331 334 331 330 327 327 322 317 304 301 301 299 308 299 293 296